GW4399 Weather Reports


Display with metric or nautical units.
time (UTC)temp
F
wind
direction
speed
MPH
gust
MPH
rain 1hr
in
rain 24hr
in
rain mn
in
humidity
%
barometer
mb
20260510142135 62 258 2.0 2.0 0.00 0.00 0.00 74 1027.6
20260510141631 62 230 2.0 4.0 0.00 0.00 0.00 74 1027.5
20260510141130 62 287 2.0 3.0 0.00 0.00 0.00 75 1027.5
20260510140626 61 217 1.0 2.0 0.00 0.00 0.00 76 1027.4
20260510140125 61 131 1.0 2.0 0.00 0.00 0.00 76 1027.2
20260510135621 60 248 1.0 2.0 0.00 0.00 0.00 77 1027.4
20260510135117 60 290 2.0 3.0 0.00 0.00 0.00 77 1027.4
20260510134614 59 276 1.0 1.0 0.00 0.00 0.00 79 1027.5
20260510134111 58 266 1.0 1.0 0.00 0.00 0.00 79 1027.6
20260510133607 58 215 0.0 1.0 0.00 0.00 0.00 81 1027.6
20260510133103 57 285 0.0 3.0 0.00 0.00 0.00 81 1027.6
20260510132600 57 303 2.0 2.0 0.00 0.00 0.00 83 1027.8
20260510132057 57 302 1.0 3.0 0.00 0.00 0.00 83 1027.7
20260510131555 57 281 1.0 1.0 0.00 0.00 0.00 82 1027.6
20260510131052 56 195 1.0 2.0 0.00 0.00 0.00 84 1027.7
20260510130548 56 191 1.0 1.0 0.00 0.00 0.00 87 1027.5
20260510130046 54 203 1.0 1.0 0.00 0.00 0.00 88 1027.5
20260510125542 54 210 0.0 2.0 0.00 0.00 0.00 90 1027.5
20260510125038 54 276 1.0 2.0 0.00 0.00 0.00 92 1027.5
20260510124535 53 235 0.0 1.0 0.00 0.00 0.00 92 1027.6
20260510124032 52 235 1.0 1.0 0.00 0.00 0.00 93 1027.5
20260510123533 52 235 0.0 1.0 0.00 0.00 0.00 93 1027.6
20260510123029 52 234 0.0 0.0 0.00 0.00 0.00 93 1027.4
20260510122525 52 234 0.0 1.0 0.00 0.00 0.00 93 1027.4
20260510122021 52 234 0.0 0.0 0.00 0.00 0.00 93 1027.3
20260510121518 52 234 0.0 0.0 0.00 0.00 0.00 93 1027.1
20260510121016 51 234 0.0 0.0 0.00 0.00 0.00 94 1027.1
20260510120513 51 234 0.0 0.0 0.00 0.00 0.00 93 1026.8
20260510120009 51 234 0.0 0.0 0.00 0.00 0.00 94 1027.0
20260510115506 51 234 0.0 0.0 0.00 0.00 0.00 93 1027.0
20260510115002 51 234 0.0 0.0 0.00 0.00 0.00 94 1026.9
20260510114458 51 234 0.0 0.0 0.00 0.00 0.00 94 1027.2
20260510113954 51 234 0.0 0.0 0.00 0.00 0.00 94 1027.0
20260510113449 51 234 0.0 0.0 0.00 0.00 0.00 94 1026.9
20260510112948 51 234 1.0 1.0 0.00 0.00 0.00 93 1026.9
20260510112444 51 199 0.0 1.0 0.00 0.00 0.00 94 1026.8
20260510111941 51 198 0.0 1.0 0.00 0.00 0.00 94 1026.7
20260510111437 51 198 0.0 0.0 0.00 0.00 0.00 94 1026.3
20260510110933 51 198 0.0 0.0 0.00 0.00 0.00 94 1026.5
20260510110429 51 198 0.0 0.0 0.00 0.00 0.00 94 1026.5
20260510105925 51 198 0.0 0.0 0.00 0.00 0.00 94 1026.5
20260510105420 50 198 0.0 0.0 0.00 0.00 0.00 94 1026.6
20260510104916 50 198 0.0 0.0 0.00 0.00 0.00 94 1026.5
20260510104413 50 198 0.0 0.0 0.00 0.00 0.00 94 1026.2
20260510103909 50 198 0.0 0.0 0.00 0.00 0.00 94 1026.2
20260510103402 50 198 0.0 0.0 0.00 0.00 0.00 94 1026.0
20260510102857 50 198 0.0 0.0 0.00 0.00 0.00 94 1026.2
20260510102353 50 198 0.0 0.0 0.00 0.00 0.00 94 1026.1
20260510101850 50 199 0.0 0.0 0.00 0.00 0.00 94 1026.1
20260510101348 50 198 1.0 1.0 0.00 0.00 0.00 94 1026.3
20260510100845 49 176 0.0 1.0 0.00 0.00 0.00 94 1026.1
20260510100342 49 173 0.0 0.0 0.00 0.00 0.00 93 1026.0
20260510095838 50 177 0.0 0.0 0.00 0.00 0.00 93 1025.9
20260510095332 50 181 0.0 1.0 0.00 0.00 0.00 93 1025.9
20260510094826 50 176 0.0 0.0 0.00 0.00 0.00 93 1025.7
20260510094321 50 178 0.0 0.0 0.00 0.00 0.00 93 1025.7
20260510093818 50 181 0.0 1.0 0.00 0.00 0.00 93 1025.8
20260510093314 50 176 0.0 0.0 0.00 0.00 0.00 93 1025.6
20260510092811 50 177 0.0 0.0 0.00 0.00 0.00 93 1025.5
20260510092307 50 177 0.0 0.0 0.00 0.00 0.00 93 1025.5
20260510091802 50 173 0.0 0.0 0.00 0.00 0.00 93 1025.5
20260510091300 50 176 0.0 1.0 0.00 0.00 0.00 94 1025.7
20260510090756 50 177 0.0 1.0 0.00 0.00 0.00 94 1025.4
20260510090253 49 176 0.0 1.0 0.00 0.00 0.00 94 1025.7
20260510085749 49 174 0.0 1.0 0.00 0.00 0.00 94 1025.8
20260510085243 49 173 0.0 1.0 0.00 0.00 0.00 94 1025.6
20260510084739 49 174 1.0 1.0 0.00 0.00 0.00 93 1025.9
20260510084237 49 173 0.0 0.0 0.00 0.00 0.00 94 1026.0
20260510083733 50 173 0.0 0.0 0.00 0.00 0.00 94 1025.7
20260510083230 50 186 1.0 1.0 0.00 0.00 0.00 94 1025.9
20260510082725 49 180 1.0 1.0 0.00 0.00 0.00 94 1026.1
20260510082222 49 200 0.0 1.0 0.00 0.00 0.00 94 1026.1
20260510081721 49 200 0.0 0.0 0.00 0.00 0.00 94 1026.3
20260510081218 49 200 0.0 0.0 0.00 0.00 0.00 94 1026.1
20260510080713 49 200 0.0 0.0 0.00 0.00 0.00 94 1026.1
20260510080209 49 200 0.0 0.0 0.00 0.00 0.00 94 1026.4
20260510075706 49 200 0.0 1.0 0.00 0.00 0.00 94 1026.3
20260510075204 49 209 0.0 1.0 0.00 0.00 0.00 93 1026.4
20260510074700 49 221 0.0 0.0 0.00 0.00 0.00 94 1026.5
20260510074156 49 227 0.0 0.0 0.00 0.00 0.00 94 1026.5
20260510073653 49 227 0.0 0.0 0.00 0.00 0.00 94 1026.6
20260510073149 49 227 0.0 0.0 0.00 0.00 0.00 94 1026.6
20260510072645 49 227 0.0 0.0 0.00 0.00 0.00 94 1026.6
20260510072142 49 209 0.0 0.0 0.00 0.00 0.00 94 1026.6
20260510071638 49 209 1.0 1.0 0.00 0.00 0.00 94 1026.5
20260510071135 48 46 0.0 0.0 0.00 0.00 0.00 94 1026.6
20260510070633 48 46 0.0 0.0 0.00 0.00 0.00 94 1026.8
20260510070131 47 46 0.0 1.0 0.00 0.00 0.00 93 1026.7
20260510065626 47 51 1.0 2.0 0.00 0.00 0.00 93 1026.6
20260510065123 47 128 1.0 1.0 0.00 0.00 0.00 93 1026.1
20260510064619 46 128 0.0 1.0 0.00 0.00 0.00 93 1026.2
20260510064116 47 129 1.0 1.0 0.00 0.00 0.00 93 1026.0
20260510063613 47 130 0.0 0.0 0.00 0.00 0.00 93 1026.0
20260510063110 47 201 0.0 1.0 0.00 0.00 0.00 93 1026.0
20260510062605 47 201 0.0 0.0 0.00 0.00 0.00 93 1026.1
20260510062101 47 200 0.0 0.0 0.00 0.00 0.00 93 1026.1
20260510061557 46 200 0.0 0.0 0.00 0.00 0.00 93 1026.1
20260510061055 46 200 0.0 0.0 0.00 0.00 0.00 93 1026.3
20260510060550 45 201 0.0 0.0 0.00 0.00 0.00 93 1026.5
20260510060047 45 201 0.0 0.0 0.00 0.00 0.00 93 1026.5
20260510055543 45 201 0.0 0.0 0.00 0.00 0.00 93 1026.4
20260510055041 45 201 0.0 1.0 0.00 0.00 0.00 93 1026.4
20260510054537 45 201 0.0 1.0 0.00 0.00 0.00 93 1026.2
20260510054032 46 201 1.0 1.0 0.00 0.00 0.00 93 1026.3
20260510053527 46 201 1.0 1.0 0.00 0.00 0.00 93 1026.1
20260510053024 45 199 0.0 1.0 0.00 0.00 0.00 93 1025.8
20260510052520 45 199 0.0 0.0 0.00 0.00 0.00 93 1025.6
20260510052016 45 199 0.0 0.0 0.00 0.00 0.00 93 1025.6
20260510051512 46 199 0.0 0.0 0.00 0.00 0.00 93 1025.8
20260510051009 48 198 0.0 0.0 0.00 0.00 0.00 93 1025.8
20260510050506 48 198 0.0 0.0 0.00 0.00 0.00 92 1025.6
20260510050003 49 198 0.0 0.0 0.00 0.00 0.00 93 1025.7
20260510045500 50 198 0.0 1.0 0.00 0.00 0.00 93 1025.7
20260510044956 50 199 1.0 2.0 0.00 0.00 0.00 93 1026.0
20260510044453 50 198 2.0 3.0 0.00 0.00 0.00 93 1025.9
20260510043950 50 197 1.0 3.0 0.00 0.00 0.00 93 1025.8
20260510043445 50 197 2.0 3.0 0.00 0.00 0.00 93 1025.9
20260510042944 48 194 0.0 1.0 0.00 0.00 0.00 93 1025.8
20260510042440 47 194 0.0 0.0 0.00 0.00 0.00 93 1025.8
20260510041935 46 194 0.0 0.0 0.00 0.00 0.00 92 1025.7
20260510041433 46 194 0.0 0.0 0.00 0.00 0.00 92 1025.8
20260510040931 46 194 0.0 0.0 0.00 0.00 0.00 92 1025.7
20260510040427 46 194 0.0 0.0 0.00 0.00 0.00 92 1025.8
20260510035923 46 194 0.0 0.0 0.00 0.35 0.35 92 1025.7
20260510035420 46 194 0.0 0.0 0.00 0.35 0.35 92 1025.6
20260510034919 46 194 0.0 1.0 0.00 0.35 0.35 92 1025.7
20260510034418 46 194 0.0 1.0 0.00 0.35 0.35 92 1025.7
20260510033914 47 194 0.0 0.0 0.00 0.35 0.35 92 1025.5
20260510033410 47 193 0.0 0.0 0.00 0.35 0.35 92 1025.5
20260510032907 47 193 0.0 0.0 0.00 0.35 0.35 92 1025.5
20260510032404 48 193 0.0 0.0 0.00 0.35 0.35 92 1025.4
20260510031859 48 193 0.0 0.0 0.00 0.35 0.35 92 1025.5
20260510031355 48 193 0.0 0.0 0.00 0.35 0.35 91 1025.6
20260510030854 48 193 0.0 0.0 0.00 0.35 0.35 91 1025.7
20260510030351 48 193 0.0 0.0 0.00 0.35 0.35 91 1025.7
20260510025849 48 193 0.0 0.0 0.00 0.35 0.35 91 1025.8
20260510025346 48 193 0.0 0.0 0.00 0.35 0.35 91 1025.7
20260510024843 48 193 0.0 0.0 0.00 0.35 0.35 91 1025.7
20260510024339 48 193 0.0 0.0 0.00 0.35 0.35 90 1025.8
20260510023836 49 193 0.0 0.0 0.00 0.35 0.35 90 1025.8
20260510023332 49 193 0.0 0.0 0.00 0.35 0.35 90 1025.9
20260510022830 50 193 0.0 0.0 0.00 0.35 0.35 90 1025.6
20260510022328 51 193 0.0 0.0 0.00 0.35 0.35 90 1025.7
20260510021828 51 193 0.0 1.0 0.00 0.35 0.35 90 1025.5
20260510021326 51 193 0.0 1.0 0.00 0.35 0.35 90 1025.5
20260510020822 51 193 0.0 1.0 0.00 0.35 0.35 90 1025.4
20260510020317 51 193 1.0 1.0 0.00 0.35 0.35 90 1025.7
20260510015813 51 193 0.0 1.0 0.00 0.35 0.35 90 1025.7
20260510015309 50 193 0.0 0.0 0.00 0.35 0.35 89 1025.5
20260510014805 51 193 0.0 0.0 0.00 0.35 0.35 89 1025.4
20260510014302 51 193 0.0 0.0 0.00 0.35 0.35 89 1025.5
20260510013758 51 193 0.0 1.0 0.00 0.35 0.35 89 1025.6
20260510013254 52 193 0.0 1.0 0.00 0.35 0.35 89 1025.6
20260510012749 52 194 1.0 2.0 0.00 0.35 0.35 89 1025.3
20260510012244 52 193 0.0 1.0 0.00 0.35 0.35 89 1025.2
20260510011743 52 189 1.0 1.0 0.00 0.35 0.35 89 1025.3
20260510011239 52 185 0.0 1.0 0.00 0.35 0.35 89 1025.2
20260510010736 52 183 0.0 1.0 0.00 0.35 0.35 89 1025.3
20260510010232 52 187 0.0 1.0 0.00 0.35 0.35 89 1025.1
20260510005730 52 187 1.0 2.0 0.00 0.35 0.35 89 1025.1
20260510005226 52 194 2.0 3.0 0.00 0.35 0.35 90 1024.9
20260510004719 52 195 2.0 3.0 0.00 0.35 0.35 90 1024.9
20260510004216 52 189 0.0 1.0 0.00 0.35 0.35 90 1025.1
20260510003714 52 195 0.0 0.0 0.00 0.35 0.35 90 1024.8
20260510003209 52 196 0.0 1.0 0.00 0.35 0.35 90 1025.0
20260510002708 52 176 1.0 1.0 0.00 0.35 0.35 90 1024.8
20260510002206 52 183 0.0 1.0 0.00 0.35 0.35 89 1024.6
20260510001703 52 189 0.0 1.0 0.00 0.35 0.35 89 1024.7
20260510001202 53 177 1.0 2.0 0.00 0.35 0.35 89 1024.5
20260510000701 53 176 2.0 3.0 0.00 0.35 0.35 89 1024.5
20260510000159 53 188 1.0 1.0 0.00 0.35 0.35 89 1024.6
20260509235656 53 180 0.0 1.0 0.00 0.35 0.35 89 1024.5
20260509235152 53 169 1.0 3.0 0.00 0.35 0.35 89 1024.5
20260509234648 53 176 1.0 2.0 0.00 0.35 0.35 88 1024.6
20260509234146 53 191 2.0 2.0 0.00 0.35 0.35 88 1024.5
20260509233644 54 184 1.0 2.0 0.00 0.35 0.35 88 1024.4
20260509233141 54 197 2.0 2.0 0.00 0.35 0.35 87 1024.5
20260509232637 54 181 2.0 2.0 0.00 0.35 0.35 87 1024.3
20260509232134 54 187 2.0 2.0 0.00 0.35 0.35 87 1024.4
20260509231630 54 186 2.0 2.0 0.00 0.35 0.35 87 1024.3
20260509231128 54 178 1.0 1.0 0.00 0.35 0.35 88 1024.4
20260509230625 54 188 2.0 2.0 0.00 0.35 0.35 88 1024.5
20260509230122 54 185 1.0 1.0 0.00 0.35 0.35 88 1024.5
20260509225618 54 190 1.0 2.0 0.00 0.35 0.35 88 1024.5
20260509225113 54 183 1.0 2.0 0.00 0.35 0.35 89 1024.6
20260509224608 53 199 2.0 2.0 0.00 0.35 0.35 89 1024.5
20260509224106 53 182 0.0 1.0 0.00 0.35 0.35 89 1024.5
20260509223603 53 169 1.0 2.0 0.00 0.35 0.35 89 1024.6
20260509223100 53 187 1.0 1.0 0.00 0.35 0.35 89 1024.6
20260509222556 53 194 4.0 4.0 0.00 0.35 0.35 89 1024.5
20260509222052 53 172 1.0 2.0 0.00 0.35 0.35 89 1024.5
20260509221548 53 181 1.0 2.0 0.00 0.35 0.35 90 1024.4
20260509221044 53 186 1.0 1.0 0.00 0.35 0.35 90 1024.5
20260509220540 53 172 2.0 2.0 0.00 0.35 0.35 90 1024.5
20260509220037 54 180 1.0 2.0 0.00 0.35 0.35 90 1024.6
20260509215532 54 174 0.0 1.0 0.00 0.35 0.35 91 1024.8
20260509215030 54 183 1.0 2.0 0.07 0.35 0.35 90 1024.8
20260509214526 54 187 0.0 1.0 0.07 0.35 0.35 91 1024.7
20260509214023 54 191 0.0 1.0 0.00 0.34 0.34 91 1024.7
20260509213519 54 183 1.0 1.0 0.00 0.34 0.34 90 1024.9
20260509213017 54 199 1.0 1.0 0.00 0.34 0.34 91 1024.9
20260509212514 54 202 0.0 0.0 0.05 0.34 0.34 91 1025.0
20260509212011 53 202 0.0 1.0 0.05 0.34 0.34 90 1025.0
20260509211506 54 252 0.0 0.0 0.00 0.33 0.33 90 1025.0
20260509211003 53 252 0.0 0.0 0.00 0.33 0.33 90 1025.1
20260509210500 54 252 0.0 0.0 0.00 0.33 0.33 90 1025.1
20260509205955 54 252 0.0 0.0 0.07 0.33 0.33 90 1025.0
20260509205450 53 253 0.0 0.0 0.07 0.33 0.33 90 1025.0
20260509204946 53 253 0.0 0.0 0.05 0.32 0.32 90 1025.1
20260509204443 53 253 0.0 0.0 0.12 0.32 0.32 90 1025.4
20260509203939 53 253 0.0 0.0 0.12 0.31 0.31 90 1025.0
20260509203435 54 254 0.0 0.0 0.12 0.30 0.30 90 1025.3
20260509202933 54 254 0.0 0.0 0.07 0.29 0.29 89 1025.4
20260509202429 54 254 0.0 0.0 0.00 0.28 0.28 89 1025.5
20260509201924 53 254 0.0 0.0 0.05 0.28 0.28 89 1025.5
20260509201419 53 255 0.0 1.0 0.05 0.28 0.28 89 1025.5
20260509200917 54 226 0.0 0.0 0.00 0.27 0.27 89 1025.4
20260509200416 54 226 0.0 0.0 0.00 0.27 0.27 89 1025.7
20260509195914 53 226 0.0 0.0 0.07 0.27 0.27 89 1025.7
20260509195409 53 226 0.0 0.0 0.07 0.27 0.27 89 1025.8
20260509194908 53 226 0.0 1.0 0.05 0.26 0.26 89 1025.8
20260509194405 53 285 1.0 2.0 0.05 0.26 0.26 89 1025.8
20260509193901 53 283 0.0 2.0 0.07 0.25 0.25 89 1025.8
20260509193356 54 222 1.0 1.0 0.07 0.25 0.25 89 1026.0
20260509192852 54 275 1.0 1.0 0.00 0.24 0.24 89 1026.0
20260509192348 54 204 1.0 2.0 0.00 0.24 0.24 89 1026.1
20260509191844 54 234 0.0 1.0 0.07 0.24 0.24 90 1025.9
20260509191339 54 290 0.0 3.0 0.07 0.24 0.24 90 1026.1
20260509190836 54 213 0.0 1.0 0.05 0.23 0.23 90 1026.2
20260509190333 55 208 1.0 1.0 0.07 0.22 0.22 90 1026.2
20260509185830 55 306 0.0 1.0 0.19 0.22 0.22 90 1026.4
20260509185326 55 235 0.0 0.0 0.12 0.21 0.21 90 1026.5
20260509184824 55 234 0.0 0.0 0.05 0.19 0.19 90 1026.7
20260509184320 55 256 0.0 2.0 0.12 0.19 0.19 90 1026.7
20260509183817 55 270 0.0 1.0 0.07 0.18 0.18 89 1026.5
20260509183307 55 244 0.0 1.0 0.05 0.17 0.17 89 1026.5
20260509182803 55 313 0.0 0.0 0.05 0.17 0.17 90 1026.5
20260509182300 55 304 1.0 2.0 0.00 0.16 0.16 89 1026.4
20260509181757 55 240 1.0 1.0 0.07 0.16 0.16 89 1026.3
20260509181255 55 257 1.0 3.0 0.07 0.16 0.16 89 1026.3
20260509180752 55 271 1.0 2.0 0.05 0.15 0.15 89 1026.4
20260509180248 55 245 0.0 1.0 0.19 0.15 0.15 88 1026.1
20260509175745 55 292 0.0 2.0 0.19 0.14 0.14 88 1026.2
20260509175241 55 292 2.0 2.0 0.05 0.12 0.12 87 1026.1
20260509174737 56 90 0.0 1.0 0.07 0.11 0.11 86 1026.0
20260509174233 56 90 0.0 0.0 0.07 0.11 0.11 85 1026.0
20260509173729 56 90 0.0 0.0 0.00 0.10 0.10 85 1025.8
20260509173225 55 90 0.0 0.0 0.00 0.10 0.10 85 1025.9
20260509172721 56 90 0.0 1.0 0.00 0.10 0.10 85 1025.9
20260509172218 56 103 0.0 1.0 0.00 0.10 0.10 85 1025.9
20260509171713 56 105 0.0 2.0 0.00 0.10 0.10 84 1025.8
20260509171210 56 72 0.0 1.0 0.00 0.10 0.10 85 1025.7
20260509170707 56 68 0.0 0.0 0.00 0.10 0.10 85 1025.8
20260509170202 56 68 0.0 0.0 0.00 0.10 0.10 85 1026.0
20260509165701 56 82 0.0 0.0 0.00 0.10 0.10 85 1025.9
20260509165156 56 83 0.0 0.0 0.00 0.10 0.10 85 1026.1
20260509164653 56 85 0.0 1.0 0.00 0.10 0.10 85 1026.1
20260509164148 56 130 0.0 0.0 0.00 0.10 0.10 85 1026.2
20260509163646 55 135 0.0 1.0 0.00 0.10 0.10 85 1026.3
20260509163142 55 110 0.0 0.0 0.00 0.10 0.10 86 1026.3
20260509162640 54 111 0.0 1.0 0.00 0.10 0.10 85 1026.4
20260509162135 54 125 1.0 1.0 0.00 0.10 0.10 86 1026.2
20260509161631 54 100 0.0 2.0 0.05 0.10 0.10 87 1026.0
20260509161126 54 111 0.0 1.0 0.05 0.10 0.10 86 1026.3
20260509160623 54 112 0.0 1.0 0.00 0.09 0.09 86 1026.5
20260509160118 54 76 0.0 1.0 0.00 0.09 0.09 86 1026.6
20260509155615 54 75 0.0 1.0 0.00 0.09 0.09 85 1026.9
20260509155111 54 75 0.0 1.0 0.07 0.09 0.09 85 1026.8
20260509154607 54 123 0.0 0.0 0.07 0.09 0.09 85 1026.9
20260509154104 54 128 0.0 1.0 0.00 0.08 0.08 85 1027.0
20260509153601 54 129 0.0 1.0 0.00 0.08 0.08 85 1027.1
20260509153058 54 129 0.0 0.0 0.00 0.08 0.08 85 1027.2
20260509152554 54 129 0.0 0.0 0.05 0.08 0.08 84 1027.3
20260509152051 54 109 0.0 1.0 0.05 0.08 0.08 84 1027.2
20260509151547 54 98 0.0 1.0 0.00 0.07 0.07 82 1027.0
20260509151045 54 128 0.0 0.0 0.00 0.07 0.07 82 1027.2
20260509150543 54 96 0.0 1.0 0.00 0.07 0.07 81 1027.0
20260509150041 54 119 0.0 1.0 0.00 0.07 0.07 81 1027.1
20260509145536 54 89 0.0 2.0 0.00 0.07 0.07 82 1026.8
20260509145031 54 169 0.0 1.0 0.00 0.07 0.07 82 1026.8
20260509144529 54 92 1.0 1.0 0.00 0.07 0.07 82 1026.8
20260509144026 53 123 0.0 1.0 0.00 0.07 0.07 83 1026.8
20260509143522 54 91 1.0 2.0 0.00 0.07 0.07 83 1026.6
20260509143021 53 80 0.0 0.0 0.00 0.07 0.07 83 1026.8